FW7611 Weather Reports


Display with metric or nautical units.
time (UTC)temp
F
wind
direction
speed
MPH
gust
MPH
rain 1hr
in
rain 24hr
in
rain mn
in
humidity
%
barometer
mb
20260504231545 74 178 1.0 5.0 0.00 0.00 0.00 35 1014.6
20260504230045 74 210 0.0 4.0 0.00 0.00 0.00 35 1014.5
20260504224537 74 336 1.0 6.0 0.00 0.00 0.00 34 1014.6
20260504223057 74 246 1.0 3.0 0.00 0.00 0.00 34 1014.6
20260504221555 75 159 2.0 5.0 0.00 0.00 0.00 35 1014.5
20260504220040 75 159 2.0 7.0 0.00 0.00 0.00 35 1014.5
20260504214540 76 323 1.0 7.0 0.00 0.00 0.00 35 1014.6
20260504213047 76 174 2.0 4.0 0.00 0.00 0.00 35 1014.5
20260504211547 76 264 3.0 8.0 0.00 0.00 0.00 35 1014.6
20260504210041 76 257 1.0 8.0 0.00 0.00 0.00 36 1014.6
20260504204540 76 244 1.0 9.0 0.00 0.00 0.00 36 1014.7
20260504203046 76 199 1.0 8.0 0.00 0.00 0.00 36 1014.7
20260504201535 77 250 1.0 7.0 0.00 0.00 0.00 37 1015.0
20260504200042 76 235 1.0 8.0 0.00 0.00 0.00 36 1015.0
20260504194546 75 219 1.0 8.0 0.00 0.00 0.00 36 1015.3
20260504193037 76 131 1.0 5.0 0.00 0.00 0.00 38 1015.6
20260504191540 76 144 2.0 10.0 0.00 0.00 0.00 37 1015.8
20260504190034 75 253 1.0 4.0 0.00 0.00 0.00 37 1015.9
20260504184540 77 229 2.0 7.0 0.00 0.00 0.00 36 1016.2
20260504183042 76 181 2.0 4.0 0.00 0.00 0.00 36 1016.2
20260504181540 76 311 1.0 4.0 0.00 0.00 0.00 35 1016.4
20260504180045 75 275 1.0 2.0 0.00 0.00 0.00 34 1016.4
20260504174535 75 170 2.0 6.0 0.00 0.00 0.00 37 1016.7
20260504173035 74 232 1.0 6.0 0.00 0.00 0.00 36 1016.8
20260504171543 74 114 1.0 5.0 0.00 0.00 0.00 37 1016.8
20260504150111 67 248 1.0 3.0 0.00 0.00 0.00 41 1018.7
20260504081537 43 0 0.0 0.0 0.00 0.00 0.00 84 1018.2
20260504044541 47 0 0.0 0.0 0.00 0.00 0.00 68 1018.4
20260504043040 47 0 0.0 0.0 0.00 0.00 0.00 67 1018.3
20260504041535 48 0 0.0 0.0 0.00 0.00 0.00 68 1018.1
20260504040107 48 0 0.0 0.0 0.00 0.00 0.00 67 1018.1
20260504034541 49 0 0.0 0.0 0.00 0.00 0.00 67 1018.2
20260504033041 49 0 0.0 2.0 0.00 0.00 0.00 67 1018.2
20260504031539 49 0 0.0 2.0 0.00 0.00 0.00 65 1018.1
20260504030036 50 0 0.0 0.0 0.00 0.00 0.00 62 1018.2
20260504024548 50 0 0.0 0.0 0.00 0.00 0.00 60 1018.3
20260504023040 51 0 0.0 0.0 0.00 0.00 0.00 60 1018.2
20260504021540 51 0 0.0 1.0 0.00 0.00 0.00 62 1018.0
20260504020040 51 0 0.0 0.0 0.00 0.00 0.00 59 1017.7
20260504014551 51 0 0.0 2.0 0.00 0.00 0.00 61 1017.5
20260504013036 52 185 0.0 2.0 0.00 0.00 0.00 57 1017.3
20260504011534 52 0 0.0 0.0 0.00 0.00 0.00 57 1017.2
20260504010034 53 0 0.0 0.0 0.00 0.00 0.00 56 1017.1
20260504004542 54 0 0.0 0.0 0.00 0.00 0.00 53 1017.0
20260504003040 55 0 0.0 2.0 0.00 0.00 0.00 52 1016.8
20260504001555 56 0 0.0 0.0 0.00 0.00 0.00 51 1016.7
20260504000039 58 0 0.0 2.0 0.00 0.00 0.00 48 1016.6
20260503234536 59 0 0.0 2.0 0.00 0.00 0.00 44 1016.6
20260503233033 62 211 1.0 3.0 0.00 0.00 0.00 35 1016.7